Location: Bayview
(38.0070°N, 122.3188°W)
Time: 17:08:00
(UTC+00:00)

Envisat - Pass Details

Date: 29 June 2022
Orbit: 763 x 765 km, 98.2° (Epoch: 09 August)

Event Time Altitude Azimuth Distance (km) Brightness Sun altitude
Rises 12:02:51 0° 22° (NNE) 3,238 7.4 -8.4°
Reaches altitude 10° 12:05:20 10° 30° (NNE) 2,307 6.8 -8.0°
Maximum altitude 12:10:01 37° 97° (E) 1,182 4.5 -7.3°
Drops below altitude 10° 12:14:40 10° 165° (SSE) 2,291 5.3 -6.6°
Sets 12:17:07 0° 173° (S) 3,212 5.9 -6.2°
